Time,TemperatureF,DewpointF,PressureIn,WindDirection,WindDirectionDegrees,WindSpeedMPH,WindSpeedGustMPH,Humidity,HourlyPrecipIn,Conditions,Clouds,dailyrainin,SoftwareType,DateUTC
2013-05-04 00:01:00,55.4,43.0,30.34,SSE,155,1.0,5.0,63,0.00,,,0.00,WeatherCatV1.14B232,2013-05-04 04:01:00,
2013-05-04 00:06:00,55.4,43.0,30.34,South,188,2.0,5.0,63,0.00,,,0.00,WeatherCatV1.14B232,2013-05-04 04:06:00,
2013-05-04 00:11:00,55.5,43.1,30.34,South,174,0.0,2.0,63,0.00,,,0.00,WeatherCatV1.14B232,2013-05-04 04:11:00,
2013-05-04 00:16:00,55.4,43.0,30.34,SSE,166,1.0,4.0,63,0.00,,,0.00,WeatherCatV1.14B232,2013-05-04 04:16:00,
2013-05-04 00:21:00,55.3,43.3,30.34,SSE,165,1.0,4.0,64,0.00,,,0.00,WeatherCatV1.14B232,2013-05-04 04:21:00,
2013-05-04 00:26:00,55.1,43.1,30.34,SSE,162,4.0,4.0,64,0.00,,,0.00,WeatherCatV1.14B232,2013-05-04 04:26:00,
2013-05-04 00:31:00,55.0,43.0,30.34,SSE,163,2.0,5.0,64,0.00,,,0.00,WeatherCatV1.14B232,2013-05-04 04:31:00,
2013-05-04 00:36:00,54.9,43.4,30.33,SSE,163,1.0,2.0,65,0.00,,,0.00,WeatherCatV1.14B232,2013-05-04 04:36:00,
2013-05-04 00:41:00,54.7,43.2,30.33,SSE,163,2.0,4.0,65,0.00,,,0.00,WeatherCatV1.14B232,2013-05-04 04:41:00,
2013-05-04 00:46:00,54.6,43.1,30.34,SSE,163,2.0,4.0,65,0.00,,,0.00,WeatherCatV1.14B232,2013-05-04 04:46:00,
2013-05-04 00:51:00,54.5,43.4,30.33,SSE,163,1.0,2.0,66,0.00,,,0.00,WeatherCatV1.14B232,2013-05-04 04:51:00,
2013-05-04 00:56:00,54.4,43.3,30.33,SSE,163,2.0,4.0,66,0.00,,,0.00,WeatherCatV1.14B232,2013-05-04 04:56:00,
2013-05-04 01:01:00,54.0,43.3,30.33,SSE,163,0.0,2.0,67,0.00,,,0.00,WeatherCatV1.14B232,2013-05-04 05:01:00,
2013-05-04 01:06:00,53.7,43.0,30.33,SSE,163,0.0,4.0,67,0.00,,,0.00,WeatherCatV1.14B232,2013-05-04 05:06:00,
2013-05-04 01:11:00,53.4,43.1,30.33,SSE,163,1.0,1.0,68,0.00,,,0.00,WeatherCatV1.14B232,2013-05-04 05:11:00,
2013-05-04 01:16:00,53.1,43.2,30.33,SSE,163,1.0,2.0,69,0.00,,,0.00,WeatherCatV1.14B232,2013-05-04 05:16:00,
2013-05-04 01:21:00,52.7,42.8,30.33,SSE,163,1.0,2.0,69,0.00,,,0.00,WeatherCatV1.14B232,2013-05-04 05:21:00,
2013-05-04 01:26:00,52.4,42.9,30.32,SSE,163,0.0,1.0,70,0.00,,,0.00,WeatherCatV1.14B232,2013-05-04 05:26:00,
2013-05-04 01:31:00,52.1,43.0,30.32,SSE,163,0.0,1.0,71,0.00,,,0.00,WeatherCatV1.14B232,2013-05-04 05:31:00,
2013-05-04 01:36:00,51.9,42.8,30.32,SSE,163,0.0,1.0,71,0.00,,,0.00,WeatherCatV1.14B232,2013-05-04 05:36:00,
2013-05-04 01:41:00,51.7,42.6,30.32,ESE,104,0.0,5.0,71,0.00,,,0.00,WeatherCatV1.14B232,2013-05-04 05:41:00,
2013-05-04 01:46:00,51.4,42.7,30.32,East,95,0.0,6.0,72,0.00,,,0.00,WeatherCatV1.14B232,2013-05-04 05:46:00,
2013-05-04 01:51:00,51.2,42.5,30.32,East,95,0.0,1.0,72,0.00,,,0.00,WeatherCatV1.14B232,2013-05-04 05:51:00,
2013-05-04 01:56:00,51.0,42.7,30.32,ESE,113,0.0,4.0,73,0.00,,,0.00,WeatherCatV1.14B232,2013-05-04 05:56:00,
2013-05-04 02:01:00,50.9,42.6,30.31,SSE,168,4.0,4.0,73,0.00,,,0.00,WeatherCatV1.14B232,2013-05-04 06:01:00,
2013-05-04 02:06:00,50.9,42.6,30.31,South,175,0.0,2.0,73,0.00,,,0.00,WeatherCatV1.14B232,2013-05-04 06:06:00,
2013-05-04 02:11:00,50.8,42.5,30.31,South,186,1.0,2.0,73,0.00,,,0.00,WeatherCatV1.14B232,2013-05-04 06:11:00,
2013-05-04 02:16:00,50.8,42.5,30.30,South,186,0.0,2.0,73,0.00,,,0.00,WeatherCatV1.14B232,2013-05-04 06:16:00,
2013-05-04 02:21:00,50.6,42.3,30.31,South,186,0.0,2.0,73,0.00,,,0.00,WeatherCatV1.14B232,2013-05-04 06:21:00,
2013-05-04 02:26:00,50.6,42.3,30.30,South,186,1.0,3.0,73,0.00,,,0.00,WeatherCatV1.14B232,2013-05-04 06:26:00,
2013-05-04 02:31:00,50.4,42.4,30.31,South,186,0.0,3.0,74,0.00,,,0.00,WeatherCatV1.14B232,2013-05-04 06:31:00,
2013-05-04 02:36:00,50.1,42.1,30.31,South,186,0.0,1.0,74,0.00,,,0.00,WeatherCatV1.14B232,2013-05-04 06:36:00,
2013-05-04 02:41:00,49.9,41.9,30.31,South,186,1.0,1.0,74,0.00,,,0.00,WeatherCatV1.14B232,2013-05-04 06:41:00,
2013-05-04 02:46:00,49.7,41.8,30.30,South,186,0.0,0.0,74,0.00,,,0.00,WeatherCatV1.14B232,2013-05-04 06:46:00,
2013-05-04 02:51:00,49.5,41.9,30.31,South,186,0.0,1.0,75,0.00,,,0.00,WeatherCatV1.14B232,2013-05-04 06:51:00,
2013-05-04 02:56:00,49.3,42.1,30.31,South,186,2.0,2.0,76,0.00,,,0.00,WeatherCatV1.14B232,2013-05-04 06:56:00,
2013-05-04 03:01:00,49.1,41.9,30.31,South,186,1.0,2.0,76,0.00,,,0.00,WeatherCatV1.14B232,2013-05-04 07:01:00,
2013-05-04 03:06:00,48.8,41.9,30.30,South,186,2.0,2.0,77,0.00,,,0.00,WeatherCatV1.14B232,2013-05-04 07:06:00,
2013-05-04 03:11:00,48.5,42.0,30.31,South,186,1.0,1.0,78,0.00,,,0.00,WeatherCatV1.14B232,2013-05-04 07:11:00,
2013-05-04 03:16:00,48.2,42.0,30.31,South,186,2.0,2.0,79,0.00,,,0.00,WeatherCatV1.14B232,2013-05-04 07:16:00,
2013-05-04 03:21:00,48.2,41.7,30.31,South,186,2.0,2.0,78,0.00,,,0.00,WeatherCatV1.14B232,2013-05-04 07:21:00,
2013-05-04 03:26:00,47.8,41.6,30.31,South,186,0.0,0.0,79,0.00,,,0.00,WeatherCatV1.14B232,2013-05-04 07:26:00,
2013-05-04 03:31:00,47.4,41.2,30.31,South,186,0.0,0.0,79,0.00,,,0.00,WeatherCatV1.14B232,2013-05-04 07:31:00,
2013-05-04 03:36:00,47.0,41.2,30.31,South,186,0.0,0.0,80,0.00,,,0.00,WeatherCatV1.14B232,2013-05-04 07:36:00,
2013-05-04 03:41:00,46.7,41.2,30.31,South,186,0.0,0.0,81,0.00,,,0.00,WeatherCatV1.14B232,2013-05-04 07:41:00,
2013-05-04 03:46:00,46.5,41.0,30.31,South,186,0.0,0.0,81,0.00,,,0.00,WeatherCatV1.14B232,2013-05-04 07:46:00,
2013-05-04 03:51:00,46.3,41.1,30.31,South,186,0.0,0.0,82,0.00,,,0.00,WeatherCatV1.14B232,2013-05-04 07:51:00,
2013-05-04 03:56:00,46.1,40.9,30.31,South,186,0.0,0.0,82,0.00,,,0.00,WeatherCatV1.14B232,2013-05-04 07:56:00,
2013-05-04 04:01:00,46.0,41.1,30.31,South,186,0.0,0.0,83,0.00,,,0.00,WeatherCatV1.14B232,2013-05-04 08:01:00,
2013-05-04 04:06:00,45.8,40.9,30.31,South,186,0.0,0.0,83,0.00,,,0.00,WeatherCatV1.14B232,2013-05-04 08:06:00,
2013-05-04 04:11:00,45.6,40.7,30.31,South,186,0.0,0.0,83,0.00,,,0.00,WeatherCatV1.14B232,2013-05-04 08:11:00,
2013-05-04 04:16:00,45.3,40.4,30.31,South,186,0.0,0.0,83,0.00,,,0.00,WeatherCatV1.14B232,2013-05-04 08:16:00,
2013-05-04 04:21:00,45.1,40.6,30.31,South,186,0.0,0.0,84,0.00,,,0.00,WeatherCatV1.14B232,2013-05-04 08:21:00,
2013-05-04 04:26:00,45.1,40.6,30.31,South,186,0.0,1.0,84,0.00,,,0.00,WeatherCatV1.14B232,2013-05-04 08:26:00,
2013-05-04 04:31:00,45.3,40.4,30.31,South,186,0.0,0.0,83,0.00,,,0.00,WeatherCatV1.14B232,2013-05-04 08:31:00,
2013-05-04 04:36:00,45.4,40.2,30.31,South,186,0.0,2.0,82,0.00,,,0.00,WeatherCatV1.14B232,2013-05-04 08:36:00,
2013-05-04 04:41:00,45.5,40.3,30.31,South,186,0.0,0.0,82,0.00,,,0.00,WeatherCatV1.14B232,2013-05-04 08:41:00,
2013-05-04 04:46:00,45.5,40.3,30.31,South,186,0.0,0.0,82,0.00,,,0.00,WeatherCatV1.14B232,2013-05-04 08:46:00,
2013-05-04 04:51:00,45.4,40.2,30.31,South,186,0.0,0.0,82,0.00,,,0.00,WeatherCatV1.14B232,2013-05-04 08:51:00,
2013-05-04 04:56:00,45.4,40.2,30.31,South,186,0.0,0.0,82,0.00,,,0.00,WeatherCatV1.14B232,2013-05-04 08:56:00,
2013-05-04 05:01:00,45.4,40.2,30.31,South,186,0.0,0.0,82,0.00,,,0.00,WeatherCatV1.14B232,2013-05-04 09:01:00,
2013-05-04 05:06:00,45.4,40.2,30.31,South,186,1.0,1.0,82,0.00,,,0.00,WeatherCatV1.14B232,2013-05-04 09:06:00,
2013-05-04 05:11:00,45.2,40.0,30.31,South,186,0.0,0.0,82,0.00,,,0.00,WeatherCatV1.14B232,2013-05-04 09:11:00,
2013-05-04 05:16:00,44.9,39.7,30.31,South,186,0.0,0.0,82,0.00,,,0.00,WeatherCatV1.14B232,2013-05-04 09:16:00,
2013-05-04 05:21:00,44.7,39.9,30.31,South,186,0.0,0.0,83,0.00,,,0.00,WeatherCatV1.14B232,2013-05-04 09:21:00,
2013-05-04 05:26:00,44.7,39.9,30.31,South,186,0.0,0.0,83,0.00,,,0.00,WeatherCatV1.14B232,2013-05-04 09:26:00,
2013-05-04 05:31:00,44.7,39.9,30.31,South,186,0.0,0.0,83,0.00,,,0.00,WeatherCatV1.14B232,2013-05-04 09:31:00,
2013-05-04 05:36:00,44.6,39.8,30.31,South,186,0.0,0.0,83,0.00,,,0.00,WeatherCatV1.14B232,2013-05-04 09:36:00,
2013-05-04 05:41:00,44.1,39.3,30.32,South,186,0.0,0.0,83,0.00,,,0.00,WeatherCatV1.14B232,2013-05-04 09:41:00,
2013-05-04 05:46:00,43.8,39.3,30.32,South,186,0.0,0.0,84,0.00,,,0.00,WeatherCatV1.14B232,2013-05-04 09:46:00,
2013-05-04 05:51:00,43.7,39.5,30.32,South,186,0.0,0.0,85,0.00,,,0.00,WeatherCatV1.14B232,2013-05-04 09:51:00,
2013-05-04 05:56:00,43.6,39.4,30.32,South,186,0.0,0.0,85,0.00,,,0.00,WeatherCatV1.14B232,2013-05-04 09:56:00,
2013-05-04 06:01:00,43.6,39.4,30.32,South,186,0.0,0.0,85,0.00,,,0.00,WeatherCatV1.14B232,2013-05-04 10:01:00,
2013-05-04 06:06:00,43.4,39.2,30.32,South,186,0.0,0.0,85,0.00,,,0.00,WeatherCatV1.14B232,2013-05-04 10:06:00,
2013-05-04 06:11:00,43.1,38.9,30.32,South,186,0.0,0.0,85,0.00,,,0.00,WeatherCatV1.14B232,2013-05-04 10:11:00,
2013-05-04 06:16:00,43.0,39.1,30.32,South,186,0.0,0.0,86,0.00,,,0.00,WeatherCatV1.14B232,2013-05-04 10:16:00,
2013-05-04 06:21:00,43.0,39.4,30.32,South,186,0.0,0.0,87,0.00,,,0.00,WeatherCatV1.14B232,2013-05-04 10:21:00,
2013-05-04 06:26:00,43.2,39.6,30.32,South,186,0.0,0.0,87,0.00,,,0.00,WeatherCatV1.14B232,2013-05-04 10:26:00,
2013-05-04 06:31:00,43.4,39.8,30.32,South,186,0.0,0.0,87,0.00,,,0.00,WeatherCatV1.14B232,2013-05-04 10:31:00,
2013-05-04 06:36:00,43.8,40.5,30.32,South,186,0.0,0.0,88,0.00,,,0.00,WeatherCatV1.14B232,2013-05-04 10:36:00,
2013-05-04 06:41:00,44.4,41.1,30.32,South,186,0.0,0.0,88,0.00,,,0.00,WeatherCatV1.14B232,2013-05-04 10:41:00,
2013-05-04 06:46:00,45.2,41.3,30.32,South,186,0.0,0.0,86,0.00,,,0.00,WeatherCatV1.14B232,2013-05-04 10:46:00,
2013-05-04 06:51:00,46.2,41.6,30.32,South,186,0.0,0.0,84,0.00,,,0.00,WeatherCatV1.14B232,2013-05-04 10:51:00,
2013-05-04 06:56:00,47.0,42.1,30.32,South,186,0.0,1.0,83,0.00,,,0.00,WeatherCatV1.14B232,2013-05-04 10:56:00,
2013-05-04 07:01:00,47.6,41.7,30.32,South,186,0.0,1.0,80,0.00,,,0.00,WeatherCatV1.14B232,2013-05-04 11:01:00,
2013-05-04 07:06:00,48.2,43.0,30.32,South,186,0.0,1.0,82,0.00,,,0.00,WeatherCatV1.14B232,2013-05-04 11:06:00,
2013-05-04 07:11:00,48.8,42.2,30.32,South,186,0.0,2.0,78,0.00,,,0.00,WeatherCatV1.14B232,2013-05-04 11:11:00,
2013-05-04 07:16:00,49.3,42.4,30.32,SE,143,0.0,1.0,77,0.00,,,0.00,WeatherCatV1.14B232,2013-05-04 11:16:00,
2013-05-04 07:21:00,49.6,42.0,30.32,SE,126,1.0,4.0,75,0.00,,,0.00,WeatherCatV1.14B232,2013-05-04 11:21:00,
2013-05-04 07:26:00,49.9,42.3,30.32,SE,126,0.0,1.0,75,0.00,,,0.00,WeatherCatV1.14B232,2013-05-04 11:26:00,
2013-05-04 07:31:00,50.5,41.8,30.32,SE,126,1.0,2.0,72,0.00,,,0.00,WeatherCatV1.14B232,2013-05-04 11:31:00,
2013-05-04 07:36:00,51.0,42.7,30.32,SE,126,0.0,1.0,73,0.00,,,0.00,WeatherCatV1.14B232,2013-05-04 11:36:00,
2013-05-04 07:41:00,51.7,43.0,30.32,ESE,117,4.0,4.0,72,0.00,,,0.00,WeatherCatV1.14B232,2013-05-04 11:41:00,
2013-05-04 07:46:00,52.2,43.8,30.32,ESE,106,0.0,1.0,73,0.00,,,0.00,WeatherCatV1.14B232,2013-05-04 11:46:00,
2013-05-04 07:51:00,52.7,43.2,30.32,ESE,106,0.0,1.0,70,0.00,,,0.00,WeatherCatV1.14B232,2013-05-04 11:51:00,
2013-05-04 07:56:00,53.1,43.2,30.32,ESE,106,0.0,2.0,69,0.00,,,0.00,WeatherCatV1.14B232,2013-05-04 11:56:00,
2013-05-04 08:01:00,53.3,43.4,30.31,ESE,106,2.0,2.0,69,0.00,,,0.00,WeatherCatV1.14B232,2013-05-04 12:01:00,
2013-05-04 08:06:00,53.7,43.0,30.31,ESE,106,0.0,2.0,67,0.00,,,0.00,WeatherCatV1.14B232,2013-05-04 12:06:00,
2013-05-04 08:11:00,54.4,44.1,30.31,ESE,106,0.0,1.0,68,0.00,,,0.00,WeatherCatV1.14B232,2013-05-04 12:11:00,
2013-05-04 08:16:00,55.0,44.2,30.31,ESE,106,2.0,4.0,67,0.00,,,0.00,WeatherCatV1.14B232,2013-05-04 12:16:00,
2013-05-04 08:21:00,55.3,44.1,30.31,ESE,106,2.0,4.0,66,0.00,,,0.00,WeatherCatV1.14B232,2013-05-04 12:21:00,
2013-05-04 08:26:00,55.7,44.5,30.31,ESE,106,1.0,2.0,66,0.00,,,0.00,WeatherCatV1.14B232,2013-05-04 12:26:00,
2013-05-04 08:31:00,56.1,44.5,30.31,ESE,106,0.0,0.0,65,0.00,,,0.00,WeatherCatV1.14B232,2013-05-04 12:31:00,
2013-05-04 08:35:00,56.8,46.7,30.31,ESE,105,0.0,2.0,69,0.00,,,0.00,WeatherCatV1.14B232,2013-05-04 12:35:00,
2013-05-04 08:40:00,57.4,45.7,30.31,ESE,103,0.0,4.0,65,0.00,,,0.00,WeatherCatV1.14B232,2013-05-04 12:40:00,
2013-05-04 08:45:00,58.0,45.1,30.31,ESE,103,0.0,1.0,62,0.00,,,0.00,WeatherCatV1.14B232,2013-05-04 12:45:00,
2013-05-04 08:50:00,58.5,45.5,30.31,South,173,2.0,4.0,62,0.00,,,0.00,WeatherCatV1.14B232,2013-05-04 12:50:00,
2013-05-04 08:55:00,58.6,45.6,30.30,SW,228,0.0,2.0,62,0.00,,,0.00,WeatherCatV1.14B232,2013-05-04 12:55:00,
2013-05-04 09:00:00,59.1,45.2,30.30,NE,53,1.0,3.0,60,0.00,,,0.00,WeatherCatV1.14B232,2013-05-04 13:00:00,
2013-05-04 09:05:00,59.4,46.4,30.30,NE,35,1.0,3.0,62,0.00,,,0.00,WeatherCatV1.14B232,2013-05-04 13:05:00,
2013-05-04 09:10:00,59.8,47.2,30.30,NW,307,1.0,1.0,63,0.00,,,0.00,WeatherCatV1.14B232,2013-05-04 13:10:00,
2013-05-04 09:15:00,60.5,47.0,30.30,NE,49,3.0,6.0,61,0.00,,,0.00,WeatherCatV1.14B232,2013-05-04 13:15:00,
2013-05-04 09:20:00,60.7,46.3,30.30,North,355,3.0,4.0,59,0.00,,,0.00,WeatherCatV1.14B232,2013-05-04 13:20:00,
2013-05-04 09:25:00,61.0,46.1,30.30,NW,305,0.0,2.0,58,0.00,,,0.00,WeatherCatV1.14B232,2013-05-04 13:25:00,
2013-05-04 09:30:00,61.4,46.5,30.30,NNE,26,1.0,1.0,58,0.00,,,0.00,WeatherCatV1.14B232,2013-05-04 13:30:00,
2013-05-04 09:35:00,61.6,45.7,30.30,North,0,3.0,3.0,56,0.00,,,0.00,WeatherCatV1.14B232,2013-05-04 13:35:00,
2013-05-04 09:40:00,61.8,47.3,30.30,WNW,286,2.0,4.0,59,0.00,,,0.00,WeatherCatV1.14B232,2013-05-04 13:40:00,
2013-05-04 09:45:00,62.0,45.6,30.29,WNW,286,0.0,4.0,55,0.00,,,0.00,WeatherCatV1.14B232,2013-05-04 13:45:00,
2013-05-04 09:50:00,62.4,45.0,30.29,North,0,3.0,3.0,53,0.00,,,0.00,WeatherCatV1.14B232,2013-05-04 13:50:00,
2013-05-04 09:55:00,62.7,45.8,30.29,West,271,1.0,5.0,54,0.00,,,0.00,WeatherCatV1.14B232,2013-05-04 13:55:00,
2013-05-04 10:00:00,62.9,45.5,30.29,North,5,0.0,3.0,53,0.00,,,0.00,WeatherCatV1.14B232,2013-05-04 14:00:00,
2013-05-04 10:05:00,63.2,46.8,30.29,North,355,1.0,3.0,55,0.00,,,0.00,WeatherCatV1.14B232,2013-05-04 14:05:00,
2013-05-04 10:10:00,63.8,47.3,30.28,West,267,4.0,5.0,55,0.00,,,0.00,WeatherCatV1.14B232,2013-05-04 14:10:00,
2013-05-04 10:15:00,63.9,46.9,30.28,West,278,1.0,4.0,54,0.00,,,0.00,WeatherCatV1.14B232,2013-05-04 14:15:00,
2013-05-04 10:20:00,64.2,46.2,30.28,NE,49,3.0,5.0,52,0.00,,,0.00,WeatherCatV1.14B232,2013-05-04 14:20:00,
2013-05-04 10:25:00,64.4,48.4,30.28,NNW,345,0.0,2.0,56,0.00,,,0.00,WeatherCatV1.14B232,2013-05-04 14:25:00,
2013-05-04 10:30:00,64.9,46.8,30.27,ENE,59,0.0,3.0,52,0.00,,,0.00,WeatherCatV1.14B232,2013-05-04 14:30:00,
2013-05-04 10:31:00,64.9,46.8,30.28,ENE,59,0.0,3.0,52,0.00,,,0.00,WeatherCatV1.14B232,2013-05-04 14:31:00,
2013-05-04 10:36:00,65.3,47.7,30.27,ENE,59,1.0,3.0,53,0.00,,,0.00,WeatherCatV1.14B232,2013-05-04 14:36:00,
2013-05-04 10:41:00,65.5,48.4,30.27,NNW,330,3.0,4.0,54,0.00,,,0.00,WeatherCatV1.14B232,2013-05-04 14:41:00,
2013-05-04 10:46:00,65.6,48.5,30.27,NNE,16,4.0,5.0,54,0.00,,,0.00,WeatherCatV1.14B232,2013-05-04 14:46:00,
2013-05-04 10:51:00,65.8,46.1,30.27,North,5,0.0,6.0,49,0.00,,,0.00,WeatherCatV1.14B232,2013-05-04 14:51:00,
2013-05-04 10:56:00,65.7,46.5,30.27,WSW,256,2.0,4.0,50,0.00,,,0.00,WeatherCatV1.14B232,2013-05-04 14:56:00,
2013-05-04 11:01:00,65.6,47.0,30.26,SW,218,3.0,5.0,51,0.00,,,0.00,WeatherCatV1.14B232,2013-05-04 15:01:00,
2013-05-04 11:06:00,65.9,49.8,30.26,NE,42,1.0,2.0,56,0.00,,,0.00,WeatherCatV1.14B232,2013-05-04 15:06:00,
2013-05-04 11:11:00,66.3,47.1,30.26,ESE,108,2.0,4.0,50,0.00,,,0.00,WeatherCatV1.14B232,2013-05-04 15:11:00,
2013-05-04 11:16:00,66.8,47.0,30.26,North,5,2.0,5.0,49,0.00,,,0.00,WeatherCatV1.14B232,2013-05-04 15:16:00,
2013-05-04 11:21:00,67.5,49.2,30.26,ENE,61,3.0,3.0,52,0.00,,,0.00,WeatherCatV1.14B232,2013-05-04 15:21:00,
2013-05-04 11:26:00,67.8,47.9,30.26,ENE,67,0.0,4.0,49,0.00,,,0.00,WeatherCatV1.14B232,2013-05-04 15:26:00,
2013-05-04 11:31:00,68.0,47.6,30.25,NNE,24,4.0,4.0,48,0.00,,,0.00,WeatherCatV1.14B232,2013-05-04 15:31:00,
2013-05-04 11:36:00,68.2,47.8,30.25,WNW,290,0.0,6.0,48,0.00,,,0.00,WeatherCatV1.14B232,2013-05-04 15:36:00,
2013-05-04 11:41:00,68.2,47.2,30.25,SSW,194,3.0,6.0,47,0.00,,,0.00,WeatherCatV1.14B232,2013-05-04 15:41:00,
2013-05-04 11:46:00,68.1,48.2,30.25,SSE,163,2.0,7.0,49,0.00,,,0.00,WeatherCatV1.14B232,2013-05-04 15:46:00,
2013-05-04 11:51:00,68.3,46.1,30.25,SSW,213,0.0,4.0,45,0.00,,,0.00,WeatherCatV1.14B232,2013-05-04 15:51:00,
2013-05-04 11:56:00,68.6,48.1,30.24,SSE,153,4.0,4.0,48,0.00,,,0.00,WeatherCatV1.14B232,2013-05-04 15:56:00,
2013-05-04 12:01:00,68.8,44.8,30.24,ESE,115,1.0,5.0,42,0.00,,,0.00,WeatherCatV1.14B232,2013-05-04 16:01:00,
2013-05-04 12:06:00,69.1,48.0,30.24,South,171,4.0,5.0,47,0.00,,,0.00,WeatherCatV1.14B232,2013-05-04 16:06:00,
2013-05-04 12:11:00,69.5,45.4,30.24,ENE,74,0.0,4.0,42,0.00,,,0.00,WeatherCatV1.14B232,2013-05-04 16:11:00,
2013-05-04 12:16:00,69.9,45.1,30.24,North,355,3.0,3.0,41,0.00,,,0.00,WeatherCatV1.14B232,2013-05-04 16:16:00,
2013-05-04 12:21:00,69.9,44.5,30.24,WSW,257,2.0,5.0,40,0.00,,,0.00,WeatherCatV1.14B232,2013-05-04 16:21:00,
2013-05-04 12:26:00,69.8,46.9,30.23,South,182,2.0,2.0,44,0.00,,,0.00,WeatherCatV1.14B232,2013-05-04 16:26:00,
2013-05-04 12:31:00,69.9,43.8,30.23,South,170,0.0,6.0,39,0.00,,,0.00,WeatherCatV1.14B232,2013-05-04 16:31:00,
2013-05-04 12:36:00,70.2,44.7,30.23,SE,136,1.0,4.0,40,0.00,,,0.00,WeatherCatV1.14B232,2013-05-04 16:36:00,
2013-05-04 12:41:00,70.7,45.8,30.23,SE,134,1.0,4.0,41,0.00,,,0.00,WeatherCatV1.14B232,2013-05-04 16:41:00,
2013-05-04 12:46:00,70.8,47.2,30.23,ENE,71,2.0,2.0,43,0.00,,,0.00,WeatherCatV1.14B232,2013-05-04 16:46:00,
2013-05-04 12:51:00,71.0,46.7,30.22,East,83,2.0,5.0,42,0.00,,,0.00,WeatherCatV1.14B232,2013-05-04 16:51:00,
2013-05-04 12:56:00,71.2,45.0,30.22,NE,34,1.0,6.0,39,0.00,,,0.00,WeatherCatV1.14B232,2013-05-04 16:56:00,
2013-05-04 13:01:00,71.0,43.4,30.22,South,184,3.0,6.0,37,0.00,,,0.00,WeatherCatV1.14B232,2013-05-04 17:01:00,
2013-05-04 13:06:00,70.9,41.9,30.22,West,277,1.0,4.0,35,0.00,,,0.00,WeatherCatV1.14B232,2013-05-04 17:06:00,
2013-05-04 13:11:00,71.1,41.3,30.22,West,278,1.0,3.0,34,0.00,,,0.00,WeatherCatV1.14B232,2013-05-04 17:11:00,
2013-05-04 13:16:00,71.5,45.2,30.22,SSE,157,0.0,0.0,39,0.00,,,0.00,WeatherCatV1.14B232,2013-05-04 17:16:00,
2013-05-04 13:21:00,72.0,43.6,30.22,ESE,105,2.0,6.0,36,0.00,,,0.00,WeatherCatV1.14B232,2013-05-04 17:21:00,
2013-05-04 13:26:00,71.9,44.9,30.21,ENE,74,1.0,4.0,38,0.00,,,0.00,WeatherCatV1.14B232,2013-05-04 17:26:00,
2013-05-04 13:31:00,71.8,42.7,30.21,East,84,3.0,7.0,35,0.00,,,0.00,WeatherCatV1.14B232,2013-05-04 17:31:00,
2013-05-04 13:36:00,71.7,45.4,30.21,ENE,68,3.0,3.0,39,0.00,,,0.00,WeatherCatV1.14B232,2013-05-04 17:36:00,
2013-05-04 13:41:00,72.2,45.9,30.21,North,0,3.0,11.0,39,0.00,,,0.00,WeatherCatV1.14B232,2013-05-04 17:41:00,
2013-05-04 13:46:00,72.7,36.8,30.21,ENE,71,2.0,6.0,27,0.00,,,0.00,WeatherCatV1.14B232,2013-05-04 17:46:00,
2013-05-04 13:51:00,72.8,37.8,30.20,North,0,3.0,5.0,28,0.00,,,0.00,WeatherCatV1.14B232,2013-05-04 17:51:00,
2013-05-04 13:56:00,72.9,35.0,30.20,NE,54,2.0,4.0,25,0.00,,,0.00,WeatherCatV1.14B232,2013-05-04 17:56:00,
2013-05-04 14:01:00,72.9,38.8,30.20,NE,54,0.0,3.0,29,0.00,,,0.00,WeatherCatV1.14B232,2013-05-04 18:01:00,
2013-05-04 14:06:00,72.9,39.6,30.20,East,92,4.0,4.0,30,0.00,,,0.00,WeatherCatV1.14B232,2013-05-04 18:06:00,
2013-05-04 14:11:00,73.2,39.9,30.20,ENE,68,4.0,5.0,30,0.00,,,0.00,WeatherCatV1.14B232,2013-05-04 18:11:00,
2013-05-04 14:16:00,73.5,41.8,30.20,WNW,300,2.0,3.0,32,0.00,,,0.00,WeatherCatV1.14B232,2013-05-04 18:16:00,
2013-05-04 14:21:00,73.7,39.5,30.20,ESE,102,2.0,12.0,29,0.00,,,0.00,WeatherCatV1.14B232,2013-05-04 18:21:00,
2013-05-04 14:26:00,73.9,40.5,30.20,ESE,103,5.0,6.0,30,0.00,,,0.00,WeatherCatV1.14B232,2013-05-04 18:26:00,
2013-05-04 14:31:00,73.5,43.4,30.19,ENE,74,2.0,4.0,34,0.00,,,0.00,WeatherCatV1.14B232,2013-05-04 18:31:00,
2013-05-04 14:36:00,73.3,38.2,30.19,ESE,105,0.0,5.0,28,0.00,,,0.00,WeatherCatV1.14B232,2013-05-04 18:36:00,
2013-05-04 14:41:00,73.4,41.7,30.19,ESE,106,0.0,5.0,32,0.00,,,0.00,WeatherCatV1.14B232,2013-05-04 18:41:00,
2013-05-04 14:46:00,73.8,45.2,30.19,SSE,148,0.0,6.0,36,0.00,,,0.00,WeatherCatV1.14B232,2013-05-04 18:46:00,
2013-05-04 14:51:00,74.3,42.5,30.19,East,84,3.0,7.0,32,0.00,,,0.00,WeatherCatV1.14B232,2013-05-04 18:51:00,
2013-05-04 14:56:00,74.1,41.5,30.19,SSE,151,2.0,6.0,31,0.00,,,0.00,WeatherCatV1.14B232,2013-05-04 18:56:00,
2013-05-04 15:01:00,74.0,38.8,30.18,ESE,121,1.0,4.0,28,0.00,,,0.00,WeatherCatV1.14B232,2013-05-04 19:01:00,
2013-05-04 15:06:00,73.9,39.6,30.18,NE,46,0.0,2.0,29,0.00,,,0.00,WeatherCatV1.14B232,2013-05-04 19:06:00,
2013-05-04 15:11:00,74.0,41.4,30.18,ESE,109,0.0,6.0,31,0.00,,,0.00,WeatherCatV1.14B232,2013-05-04 19:11:00,
2013-05-04 15:16:00,74.2,40.8,30.18,ENE,68,1.0,6.0,30,0.00,,,0.00,WeatherCatV1.14B232,2013-05-04 19:16:00,
2013-05-04 15:21:00,74.3,40.0,30.17,ESE,123,2.0,7.0,29,0.00,,,0.00,WeatherCatV1.14B232,2013-05-04 19:21:00,
2013-05-04 15:26:00,74.3,40.0,30.17,East,94,5.0,6.0,29,0.00,,,0.00,WeatherCatV1.14B232,2013-05-04 19:26:00,
2013-05-04 15:31:00,74.4,39.2,30.17,ESE,123,6.0,7.0,28,0.00,,,0.00,WeatherCatV1.14B232,2013-05-04 19:31:00,
2013-05-04 15:36:00,74.2,41.6,30.17,East,100,4.0,5.0,31,0.00,,,0.00,WeatherCatV1.14B232,2013-05-04 19:36:00,
2013-05-04 15:41:00,74.4,40.1,30.17,ESE,105,1.0,7.0,29,0.00,,,0.00,WeatherCatV1.14B232,2013-05-04 19:41:00,
2013-05-04 15:46:00,74.4,38.2,30.17,East,94,5.0,9.0,27,0.00,,,0.00,WeatherCatV1.14B232,2013-05-04 19:46:00,
2013-05-04 15:51:00,74.3,38.1,30.17,East,100,1.0,4.0,27,0.00,,,0.00,WeatherCatV1.14B232,2013-05-04 19:51:00,
2013-05-04 15:56:00,74.2,36.1,30.17,East,86,2.0,7.0,25,0.00,,,0.00,WeatherCatV1.14B232,2013-05-04 19:56:00,
2013-05-04 16:01:00,74.3,40.8,30.16,ESE,109,2.0,5.0,30,0.00,,,0.00,WeatherCatV1.14B232,2013-05-04 20:01:00,
2013-05-04 16:06:00,74.4,37.3,30.17,SSW,203,2.0,8.0,26,0.00,,,0.00,WeatherCatV1.14B232,2013-05-04 20:06:00,
2013-05-04 16:11:00,74.5,38.3,30.16,ESE,103,0.0,5.0,27,0.00,,,0.00,WeatherCatV1.14B232,2013-05-04 20:11:00,
2013-05-04 16:16:00,74.5,39.2,30.16,ENE,76,5.0,7.0,28,0.00,,,0.00,WeatherCatV1.14B232,2013-05-04 20:16:00,
2013-05-04 16:21:00,74.0,36.9,30.16,SE,129,4.0,4.0,26,0.00,,,0.00,WeatherCatV1.14B232,2013-05-04 20:21:00,
2013-05-04 16:26:00,73.9,38.7,30.16,East,85,3.0,6.0,28,0.00,,,0.00,WeatherCatV1.14B232,2013-05-04 20:26:00,
2013-05-04 16:31:00,73.8,40.4,30.16,East,86,4.0,5.0,30,0.00,,,0.00,WeatherCatV1.14B232,2013-05-04 20:31:00,
2013-05-04 16:36:00,74.0,36.9,30.16,ESE,107,1.0,6.0,26,0.00,,,0.00,WeatherCatV1.14B232,2013-05-04 20:36:00,
2013-05-04 16:41:00,73.9,35.9,30.16,East,91,5.0,6.0,25,0.00,,,0.00,WeatherCatV1.14B232,2013-05-04 20:41:00,
2013-05-04 16:46:00,73.6,36.6,30.16,ESE,113,2.0,2.0,26,0.00,,,0.00,WeatherCatV1.14B232,2013-05-04 20:46:00,
2013-05-04 16:51:00,73.6,34.6,30.16,East,81,2.0,2.0,24,0.00,,,0.00,WeatherCatV1.14B232,2013-05-04 20:51:00,
2013-05-04 16:56:00,73.7,36.7,30.16,East,82,4.0,4.0,26,0.00,,,0.00,WeatherCatV1.14B232,2013-05-04 20:56:00,
2013-05-04 17:01:00,73.8,37.7,30.16,ESE,112,4.0,6.0,27,0.00,,,0.00,WeatherCatV1.14B232,2013-05-04 21:01:00,
2013-05-04 17:06:00,73.7,35.7,30.16,East,96,4.0,9.0,25,0.00,,,0.00,WeatherCatV1.14B232,2013-05-04 21:06:00,
2013-05-04 17:11:00,73.7,36.7,30.16,East,98,4.0,5.0,26,0.00,,,0.00,WeatherCatV1.14B232,2013-05-04 21:11:00,
2013-05-04 17:16:00,73.6,36.6,30.16,ESE,110,2.0,7.0,26,0.00,,,0.00,WeatherCatV1.14B232,2013-05-04 21:16:00,
2013-05-04 17:21:00,73.4,34.4,30.16,East,88,2.0,5.0,24,0.00,,,0.00,WeatherCatV1.14B232,2013-05-04 21:21:00,
2013-05-04 17:26:00,73.3,35.3,30.16,ESE,114,2.0,5.0,25,0.00,,,0.00,WeatherCatV1.14B232,2013-05-04 21:26:00,
2013-05-04 17:31:00,73.4,37.4,30.16,ESE,113,2.0,4.0,27,0.00,,,0.00,WeatherCatV1.14B232,2013-05-04 21:31:00,
2013-05-04 17:36:00,73.2,34.2,30.16,East,88,4.0,7.0,24,0.00,,,0.00,WeatherCatV1.14B232,2013-05-04 21:36:00,
2013-05-04 17:41:00,72.9,34.0,30.16,SE,144,6.0,9.0,24,0.00,,,0.00,WeatherCatV1.14B232,2013-05-04 21:41:00,
2013-05-04 17:46:00,72.8,35.9,30.16,East,96,0.0,4.0,26,0.00,,,0.00,WeatherCatV1.14B232,2013-05-04 21:46:00,
2013-05-04 17:51:00,72.8,35.9,30.16,East,93,4.0,4.0,26,0.00,,,0.00,WeatherCatV1.14B232,2013-05-04 21:51:00,
2013-05-04 17:56:00,72.7,34.8,30.16,ESE,113,6.0,6.0,25,0.00,,,0.00,WeatherCatV1.14B232,2013-05-04 21:56:00,
2013-05-04 18:01:00,72.2,31.2,30.16,East,92,2.0,11.0,22,0.00,,,0.00,WeatherCatV1.14B232,2013-05-04 22:01:00,
2013-05-04 18:06:00,72.0,32.2,30.16,ENE,57,1.0,2.0,23,0.00,,,0.00,WeatherCatV1.14B232,2013-05-04 22:06:00,
2013-05-04 18:11:00,71.7,31.9,30.16,SE,141,5.0,5.0,23,0.00,,,0.00,WeatherCatV1.14B232,2013-05-04 22:11:00,
2013-05-04 18:16:00,71.4,32.7,30.16,ESE,113,0.0,5.0,24,0.00,,,0.00,WeatherCatV1.14B232,2013-05-04 22:16:00,
2013-05-04 18:21:00,71.2,30.4,30.16,ESE,116,1.0,7.0,22,0.00,,,0.00,WeatherCatV1.14B232,2013-05-04 22:21:00,
2013-05-04 18:26:00,71.1,30.3,30.16,ESE,109,2.0,9.0,22,0.00,,,0.00,WeatherCatV1.14B232,2013-05-04 22:26:00,
2013-05-04 18:31:00,70.9,31.2,30.16,ENE,77,2.0,7.0,23,0.00,,,0.00,WeatherCatV1.14B232,2013-05-04 22:31:00,
2013-05-04 18:36:00,70.7,30.0,30.16,ESE,111,0.0,6.0,22,0.00,,,0.00,WeatherCatV1.14B232,2013-05-04 22:36:00,
2013-05-04 18:41:00,70.7,30.0,30.16,ESE,115,1.0,4.0,22,0.00,,,0.00,WeatherCatV1.14B232,2013-05-04 22:41:00,
2013-05-04 18:46:00,70.5,29.8,30.16,East,97,2.0,7.0,22,0.00,,,0.00,WeatherCatV1.14B232,2013-05-04 22:46:00,
2013-05-04 18:51:00,70.3,29.7,30.16,ESE,119,2.0,6.0,22,0.00,,,0.00,WeatherCatV1.14B232,2013-05-04 22:51:00,
2013-05-04 18:56:00,70.1,31.6,30.16,East,94,6.0,6.0,24,0.00,,,0.00,WeatherCatV1.14B232,2013-05-04 22:56:00,
2013-05-04 19:01:00,69.8,31.4,30.16,SSE,149,1.0,5.0,24,0.00,,,0.00,WeatherCatV1.14B232,2013-05-04 23:01:00,
2013-05-04 19:06:00,69.6,32.2,30.16,SSE,147,1.0,2.0,25,0.00,,,0.00,WeatherCatV1.14B232,2013-05-04 23:06:00,
2013-05-04 19:11:00,69.3,32.0,30.17,East,90,2.0,6.0,25,0.00,,,0.00,WeatherCatV1.14B232,2013-05-04 23:11:00,
2013-05-04 19:16:00,69.0,31.7,30.17,East,90,1.0,2.0,25,0.00,,,0.00,WeatherCatV1.14B232,2013-05-04 23:16:00,
2013-05-04 19:21:00,68.7,31.5,30.17,SE,145,2.0,5.0,25,0.00,,,0.00,WeatherCatV1.14B232,2013-05-04 23:21:00,
2013-05-04 19:26:00,68.6,31.4,30.17,SSE,149,0.0,2.0,25,0.00,,,0.00,WeatherCatV1.14B232,2013-05-04 23:26:00,
2013-05-04 19:31:00,68.5,32.3,30.17,SSE,151,0.0,5.0,26,0.00,,,0.00,WeatherCatV1.14B232,2013-05-04 23:31:00,
2013-05-04 19:36:00,68.3,31.1,30.17,South,187,2.0,5.0,25,0.00,,,0.00,WeatherCatV1.14B232,2013-05-04 23:36:00,
2013-05-04 19:41:00,68.2,32.0,30.17,South,189,0.0,1.0,26,0.00,,,0.00,WeatherCatV1.14B232,2013-05-04 23:41:00,
2013-05-04 19:46:00,67.9,32.7,30.17,South,186,3.0,3.0,27,0.00,,,0.00,WeatherCatV1.14B232,2013-05-04 23:46:00,
2013-05-04 19:51:00,67.6,33.3,30.17,South,172,0.0,4.0,28,0.00,,,0.00,WeatherCatV1.14B232,2013-05-04 23:51:00,
2013-05-04 19:56:00,67.4,32.3,30.17,South,191,0.0,2.0,27,0.00,,,0.00,WeatherCatV1.14B232,2013-05-04 23:56:00,
2013-05-04 20:01:00,67.2,32.1,30.17,SSW,193,0.0,5.0,27,0.00,,,0.00,WeatherCatV1.14B232,2013-05-05 00:01:00,
2013-05-04 20:06:00,66.8,33.5,30.17,South,189,4.0,7.0,29,0.00,,,0.00,WeatherCatV1.14B232,2013-05-05 00:06:00,
2013-05-04 20:11:00,66.3,33.9,30.17,SSW,198,2.0,3.0,30,0.00,,,0.00,WeatherCatV1.14B232,2013-05-05 00:11:00,
2013-05-04 20:16:00,65.9,34.4,30.18,SSE,167,2.0,4.0,31,0.00,,,0.00,WeatherCatV1.14B232,2013-05-05 00:16:00,
2013-05-04 20:21:00,65.6,34.1,30.18,South,173,2.0,4.0,31,0.00,,,0.00,WeatherCatV1.14B232,2013-05-05 00:21:00,
2013-05-04 20:26:00,65.4,34.8,30.18,South,173,0.0,4.0,32,0.00,,,0.00,WeatherCatV1.14B232,2013-05-05 00:26:00,
2013-05-04 20:31:00,65.0,33.6,30.18,South,173,0.0,4.0,31,0.00,,,0.00,WeatherCatV1.14B232,2013-05-05 00:31:00,
2013-05-04 20:36:00,64.8,35.0,30.18,SE,139,1.0,4.0,33,0.00,,,0.00,WeatherCatV1.14B232,2013-05-05 00:36:00,
2013-05-04 20:41:00,64.5,34.0,30.18,SSE,155,1.0,5.0,32,0.00,,,0.00,WeatherCatV1.14B232,2013-05-05 00:41:00,
2013-05-04 20:46:00,64.3,34.6,30.19,SSE,163,0.0,1.0,33,0.00,,,0.00,WeatherCatV1.14B232,2013-05-05 00:46:00,
2013-05-04 20:51:00,64.1,35.2,30.19,SSE,163,0.0,1.0,34,0.00,,,0.00,WeatherCatV1.14B232,2013-05-05 00:51:00,
2013-05-04 20:56:00,63.9,35.0,30.19,SSE,163,1.0,4.0,34,0.00,,,0.00,WeatherCatV1.14B232,2013-05-05 00:56:00,
2013-05-04 21:01:00,63.7,34.8,30.19,South,171,2.0,5.0,34,0.00,,,0.00,WeatherCatV1.14B232,2013-05-05 01:01:00,
2013-05-04 21:06:00,63.6,35.4,30.19,South,183,1.0,2.0,35,0.00,,,0.00,WeatherCatV1.14B232,2013-05-05 01:06:00,
2013-05-04 21:11:00,63.4,35.3,30.20,South,182,1.0,2.0,35,0.00,,,0.00,WeatherCatV1.14B232,2013-05-05 01:11:00,
2013-05-04 21:16:00,63.0,34.9,30.20,South,182,1.0,1.0,35,0.00,,,0.00,WeatherCatV1.14B232,2013-05-05 01:16:00,
2013-05-04 21:21:00,62.7,35.4,30.20,South,182,2.0,2.0,36,0.00,,,0.00,WeatherCatV1.14B232,2013-05-05 01:21:00,
2013-05-04 21:26:00,62.3,35.7,30.20,South,182,0.0,0.0,37,0.00,,,0.00,WeatherCatV1.14B232,2013-05-05 01:26:00,
2013-05-04 21:31:00,61.8,35.3,30.20,South,182,0.0,1.0,37,0.00,,,0.00,WeatherCatV1.14B232,2013-05-05 01:31:00,
2013-05-04 21:36:00,61.3,35.5,30.20,South,182,0.0,0.0,38,0.00,,,0.00,WeatherCatV1.14B232,2013-05-05 01:36:00,
2013-05-04 21:41:00,60.8,35.7,30.20,South,182,0.0,0.0,39,0.00,,,0.00,WeatherCatV1.14B232,2013-05-05 01:41:00,
2013-05-04 21:46:00,60.3,35.2,30.21,South,182,0.0,1.0,39,0.00,,,0.00,WeatherCatV1.14B232,2013-05-05 01:46:00,
2013-05-04 21:51:00,60.0,35.0,30.21,South,182,0.0,1.0,39,0.00,,,0.00,WeatherCatV1.14B232,2013-05-05 01:51:00,
2013-05-04 21:56:00,59.9,34.9,30.21,SSE,168,1.0,5.0,39,0.00,,,0.00,WeatherCatV1.14B232,2013-05-05 01:56:00,
2013-05-04 22:01:00,59.8,36.1,30.21,SSE,168,0.0,2.0,41,0.00,,,0.00,WeatherCatV1.14B232,2013-05-05 02:01:00,
2013-05-04 22:06:00,59.4,35.1,30.21,SSE,168,1.0,1.0,40,0.00,,,0.00,WeatherCatV1.14B232,2013-05-05 02:06:00,
2013-05-04 22:11:00,59.2,35.5,30.21,SSE,168,0.0,4.0,41,0.00,,,0.00,WeatherCatV1.14B232,2013-05-05 02:11:00,
2013-05-04 22:16:00,59.1,33.5,30.21,ESE,119,0.0,5.0,38,0.00,,,0.00,WeatherCatV1.14B232,2013-05-05 02:16:00,
2013-05-04 22:21:00,58.9,31.3,30.22,East,96,1.0,6.0,35,0.00,,,0.00,WeatherCatV1.14B232,2013-05-05 02:21:00,
2013-05-04 22:26:00,58.7,32.5,30.22,East,96,0.0,1.0,37,0.00,,,0.00,WeatherCatV1.14B232,2013-05-05 02:26:00,
2013-05-04 22:31:00,58.5,31.6,30.22,ESE,105,1.0,4.0,36,0.00,,,0.00,WeatherCatV1.14B232,2013-05-05 02:31:00,
2013-05-04 22:36:00,58.3,32.1,30.22,SSE,149,5.0,5.0,37,0.00,,,0.00,WeatherCatV1.14B232,2013-05-05 02:36:00,
2013-05-04 22:41:00,58.1,31.3,30.22,SSE,150,2.0,4.0,36,0.00,,,0.00,WeatherCatV1.14B232,2013-05-05 02:41:00,
2013-05-04 22:46:00,57.9,32.5,30.22,ESE,119,5.0,5.0,38,0.00,,,0.00,WeatherCatV1.14B232,2013-05-05 02:46:00,
2013-05-04 22:51:00,57.5,32.1,30.22,SE,130,0.0,2.0,38,0.00,,,0.00,WeatherCatV1.14B232,2013-05-05 02:51:00,
2013-05-04 22:56:00,57.3,31.9,30.22,SE,136,0.0,5.0,38,0.00,,,0.00,WeatherCatV1.14B232,2013-05-05 02:56:00,
2013-05-04 23:01:00,56.9,30.9,30.22,ESE,119,1.0,4.0,37,0.00,,,0.00,WeatherCatV1.14B232,2013-05-05 03:01:00,
2013-05-04 23:06:00,56.5,28.5,30.22,ESE,105,2.0,9.0,34,0.00,,,0.00,WeatherCatV1.14B232,2013-05-05 03:06:00,
2013-05-04 23:11:00,56.4,29.1,30.23,ESE,116,0.0,1.0,35,0.00,,,0.00,WeatherCatV1.14B232,2013-05-05 03:11:00,
2013-05-04 23:16:00,56.2,28.9,30.22,ESE,122,0.0,5.0,35,0.00,,,0.00,WeatherCatV1.14B232,2013-05-05 03:16:00,
2013-05-04 23:21:00,56.2,26.7,30.23,East,101,2.0,7.0,32,0.00,,,0.00,WeatherCatV1.14B232,2013-05-05 03:21:00,
2013-05-04 23:26:00,56.0,28.0,30.23,SE,143,2.0,2.0,34,0.00,,,0.00,WeatherCatV1.14B232,2013-05-05 03:26:00,
2013-05-04 23:31:00,56.0,28.0,30.23,SE,126,0.0,2.0,34,0.00,,,0.00,WeatherCatV1.14B232,2013-05-05 03:31:00,
2013-05-04 23:36:00,55.8,27.1,30.23,East,99,0.0,8.0,33,0.00,,,0.00,WeatherCatV1.14B232,2013-05-05 03:36:00,
2013-05-04 23:41:00,55.6,27.0,30.23,ESE,113,1.0,2.0,33,0.00,,,0.00,WeatherCatV1.14B232,2013-05-05 03:41:00,
2013-05-04 23:46:00,55.3,26.0,30.23,ESE,110,2.0,11.0,32,0.00,,,0.00,WeatherCatV1.14B232,2013-05-05 03:46:00,
2013-05-04 23:51:00,55.1,25.8,30.23,ESE,105,5.0,6.0,32,0.00,,,0.00,WeatherCatV1.14B232,2013-05-05 03:51:00,
2013-05-04 23:56:00,55.2,25.9,30.23,ESE,121,0.0,2.0,32,0.00,,,0.00,WeatherCatV1.14B232,2013-05-05 03:56:00,